Lid_Strength_Index
0 2 4 4 11 13 14 12 9 9 9 7 6 6 8 6 8 11 3 1 0 1 0 -0 -1 -1 -1 -1 -1 -1 -1 -1 -1 -1 -1 -1 -1 -1 -1 -1 -2 -2 -2 -2 -2 -2 -2 -2 -1
2 3 5 7 13 16 14 9 9 8 7 6 5 6 6 7 4 4 3 1 0 0 0 -0 -1 -1 -1 -1 -1 -1 -1 -1 -1 -1 -1 -1 -1 -1 -1 -1 -1 -2 -2 -2 -2 -2 -1 -1 -1
0 2 8 11 14 14 13 9 9 7 6 6 6 4 5 6 3 4 1 1 0 0 0 -0 -1 -1 -1 -1 -1 -1 -1 -1 -1 -1 -1 -1 -1 -1 -1 -2 -2 -2 -2 -2 -2 -2 -2 -2 -1
3 4 6 13 14 11 10 8 7 7 6 5 5 6 4 2 3 3 1 0 1 1 0 -0 -1 -1 -1 -1 -1 -1 -1 -1 -1 -1 -1 -1 -1 -1 -1 -2 -2 -2 -2 -2 -2 -2 -2 -2 -1
2 6 12 14 12 10 8 7 7 8 7 6 6 6 6 2 2 1 1 1 1 1 0 -0 -1 -1 -1 -1 -1 -1 -1 -1 -1 -1 -1 -1 -1 -1 -1 -2 -2 -2 -2 -2 -2 -2 -2 -2 -2
6 7 12 14 11 8 7 8 8 9 8 6 6 6 6 2 2 2 1 1 0 1 0 0 -1 -1 -1 -1 -1 -1 -1 -1 -1 -1 -1 -1 -1 -1 -1 -2 -2 -2 -2 -2 -2 -2 -2 -2 -2
7 9 12 12 11 10 8 8 9 8 8 7 6 6 5 4 3 2 2 1 1 0 0 0 0 -0 -1 -1 -1 -1 -1 -1 -1 -1 -1 -1 -1 -1 -1 -2 -2 -2 -2 -2 -2 -2 -2 -2 -2
6 8 11 10 10 10 6 7 8 8 8 6 6 8 7 3 2 2 3 3 1 1 1 1 0 0 0 -0 -1 -1 -1 -1 -1 -1 -1 -1 -1 -1 -1 -1 -2 -2 -2 -2 -2 -2 -2 -1 -1
5 10 12 11 10 8 6 7 5 4 6 6 7 6 3 2 2 3 4 3 2 1 1 0 0 0 0 0 -0 -1 -1 -1 -1 -1 -1 -1 0 0 -0 -1 -1 -2 -2 -2 -2 -1 -1 -1 -1
8 11 10 7 7 7 7 6 5 6 6 6 6 5 3 2 3 4 5 5 3 2 2 1 1 0 0 -0 0 0 0 0 -0 -0 0 0 0 1 -0 -1 -2 -2 -2 -2 -1 -1 -1 -1 0
9 11 8 7 6 5 6 6 5 6 7 6 6 6 3 3 3 3 4 4 3 2 2 1 1 0 0 0 0 0 0 -0 0 0 0 0 0 0 -0 0 -0 0 -1 -0 -0 -0 -0 0 0
12 9 8 8 6 6 7 6 6 6 6 5 4 5 5 6 4 4 4 3 3 2 2 1 1 1 1 1 0 0 0 0 0 0 0 0 0 0 0 0 1 0 0 0 0 0 0 0 0
11 10 9 7 7 7 6 7 7 6 5 4 4 4 5 5 5 3 4 2 2 3 3 3 1 1 1 1 0 0 0 0 0 0 -0 0 0 1 0 0 1 1 0 0 0 0 0 0 0
10 10 9 9 9 9 8 7 7 6 4 4 4 5 5 5 5 4 4 3 3 2 2 1 1 2 0 1 1 1 0 0 1 1 1 1 1 1 1 2 2 1 1 0 0 0 1 0 0
10 12 10 9 9 10 8 10 9 6 5 6 5 4 4 5 6 5 4 4 2 2 1 2 1 1 1 1 1 1 0 1 1 1 0 1 2 2 2 2 3 2 1 1 1 1 1 1 0
12 12 15 11 8 7 8 12 9 8 7 6 6 5 4 4 4 5 3 3 2 2 2 1 1 1 1 1 1 1 0 0 0 1 0 1 1 2 1 2 2 2 1 1 1 1 1 1 1
13 17 15 13 9 9 8 10 7 6 6 6 7 6 5 4 3 4 3 4 2 2 2 2 2 1 1 1 1 1 1 1 1 2 1 0 1 1 2 1 2 3 2 1 1 1 1 2 2
15 14 13 13 11 10 10 11 9 6 6 6 6 6 6 5 4 3 3 3 3 2 2 2 1 3 1 1 1 1 1 1 1 2 1 0 1 1 2 1 2 1 2 2 2 2 2 3 2
11 12 12 11 9 10 11 11 10 9 8 7 6 6 5 5 5 4 3 2 3 2 2 2 2 2 2 3 3 3 3 4 3 1 1 0 0 1 1 1 1 2 2 2 2 2 3 3 3
11 13 13 11 9 10 11 11 10 9 9 8 8 6 5 4 4 4 4 4 3 3 2 2 2 2 2 2 2 3 3 3 2 1 1 0 0 1 1 2 2 2 2 2 2 2 3 3 3
12 13 12 12 10 10 11 12 11 10 9 8 7 7 6 5 5 4 4 3 3 3 3 2 2 2 2 2 2 2 2 2 2 2 2 1 0 1 1 2 2 2 2 2 2 3 3 4 3
13 9 10 11 12 16 11 17 13 11 10 9 8 7 7 6 6 4 4 4 3 3 2 2 2 2 2 1 2 3 3 4 3 2 1 1 1 1 1 1 2 1 1 2 2 2 2 2 3
11 8 10 10 12 13 13 15 14 11 11 10 9 8 7 6 6 5 5 4 3 3 3 2 2 2 2 2 2 2 3 3 3 2 2 2 2 1 1 1 2 1 1 1 2 2 3 2 3
7 9 10 10 12 16 14 13 14 13 11 10 8 7 7 6 5 5 5 4 4 4 4 3 2 2 2 2 2 2 3 3 3 3 3 3 3 2 2 1 1 1 1 2 2 2 2 2 2
9 12 18 19 19 18 12 13 13 10 8 8 8 7 6 6 6 5 5 4 4 5 5 4 3 3 2 2 2 2 3 2 3 3 3 3 4 3 2 1 1 1 1 1 2 1 2 2 3
11 13 17 22 20 17 12 15 13 9 7 7 6 6 6 6 6 6 5 4 4 3 3 3 3 3 3 2 2 2 2 2 2 2 2 3 3 3 2 1 1 1 1 1 1 2 2 2 2
11 13 10 15 15 18 16 12 9 8 8 8 8 7 7 7 6 5 5 5 5 5 4 4 3 3 3 3 3 2 2 2 2 3 2 3 2 2 1 1 1 1 2 2 2 2 2 2 2
10 9 15 15 20 21 15 14 15 12 11 9 8 8 7 6 6 5 5 5 4 4 4 3 3 3 3 3 2 2 2 2 2 2 3 2 1 1 1 1 1 2 2 2 2 2 2 2 2
11 13 13 14 16 20 20 17 11 11 10 9 8 8 7 6 6 5 5 4 5 4 4 3 3 3 3 2 2 2 2 2 2 2 2 1 1 2 1 2 2 2 2 2 2 2 2 2 2
10 13 13 17 19 16 18 16 9 9 9 8 8 7 7 7 6 7 7 5 5 4 4 3 3 3 3 2 2 2 2 2 2 2 2 2 2 2 2 2 2 2 2 2 2 2 2 2 2